{"data":{"norad_id":51790,"intl_designator":"2022-017Y","name":"STARLINK-3631","alt_names":[],"object_type":"PAYLOAD","status":"ACTIVE","operator":null,"country":"US","launch_date":"2022-02-25","launch_site_code":"AFWTR","launch_vehicle":null,"mission":null,"orbit_class":"UNKNOWN","rcs_meters":null,"size_class":null,"mass_kg":null,"dimensions":null,"purposes":["comms"],"wikipedia_slug":null,"has_3d_model":false,"image_url":null,"decayed_at":null,"tle_current":{"epoch":"2026-05-25T00:24:11.113920Z","epoch_age_seconds":67562,"freshness":"FRESH","line1":"1 51790U 22017Y   26145.01679530  .00001281  00000+0  98544-4 0  9998","line2":"2 51790  53.2157   6.4745 0001667  98.3393 261.7789 15.08849347235490","mean_motion":15.08849347,"eccentricity":0.0001667,"inclination_deg":53.2157,"raan_deg":6.4745,"arg_perigee_deg":98.3393,"mean_anomaly_deg":261.7789,"bstar":9.8544e-5,"rev_number":23549,"period_min":95.436963462463,"perigee_km":538.56161317368,"apogee_km":540.86802497016,"semimajor_km":6917.8518190719,"source":"CELESTRAK","updated_at":"2026-05-25T13:38:16.954471Z"}}}